Regional Weather Roundup
Issued by NWS Newport/Morehead, NC

Current Version | Previous Version | Text Only | Print | Product List | Glossary Off
Versions: 1 2 3 4 5 6 7 8 9 10 11 12 13 14 15 16 17 18 19 20 21 22 23 24 25 26 27 28 29 30 31 32 33 34 35 36 37 38 39 40 41 42 43 44 45 46 47 48 49 50

000
ASUS42 KMHX 291522
RWRMHX
WEATHER ROUNDUP FOR EASTERN NORTH CAROLINA
NATIONAL WEATHER SERVICE NEWPORT/MOREHEAD CITY NC
1000 AM EST MON DEC 29 2014

NOTE: "FAIR" INDICATES FEW OR NO CLOUDS BELOW 12,000 FEET
WITH NO SIGNIFICANT WEATHER AND/OR OBSTRUCTIONS TO VISIBILITY

NCZ015>017-031-032-045>047-102-103-291600-
NORTH COAST

CITY           SKY/WX    TMP DP  RH WIND       PRES   REMARKS
EDENTON        LGT RAIN  48  47  96 NE8       30.15R
ELIZABETH CITY CLOUDY    51  46  83 NE12      30.14F
KITTY HAWK     CLOUDY    48  48 100 N8G18     30.14S
MANTEO         CLOUDY    48  48 100 N17       30.15R

$$

NCZ045>047-081-094-103-104-291600-
CENTRAL COAST

CITY           SKY/WX    TMP DP  RH WIND       PRES   REMARKS
FRISCO         CLOUDY    52  52 100 NE10G18   30.10S
SWANQUARTER      N/A     52 N/A N/A NE14G23   30.06F

$$

NCZ095-097-098-100-101-291600-
SOUTHERN COAST

CITY           SKY/WX    TMP DP  RH WIND       PRES   REMARKS
BEAUFORT       CLOUDY    57  54  89 NE14G21   30.10S
CEDAR ISLAND     N/A     54 N/A N/A NE13G18   30.15S
JACKSONVILLE   LGT RAIN  56  54  93 N7        30.10R FOG
PINEY ISLAND   CLOUDY    55  52  89 NE10      30.10F
WILMINGTON     LGT RAIN  61  59  93 N5        30.08R


$$

NCZ011>013-027>030-043-044-078>080-089-090>093-098-291600-
COASTAL PLAIN

CITY           SKY/WX    TMP DP  RH WIND       PRES   REMARKS
AHOSKIE        LGT RAIN  46  45  95 NE6       30.17F
CLINTON        RAIN      55  55 100 E6        30.12F
ELIZABETHTOWN  LGT RAIN  56  54  95 NE3       30.11R
GOLDSBORO      LGT RAIN  55  55 100 NE7       30.11S FOG
GREENVILLE     LGT RAIN  50  50 100 E6        30.14F
HAVELOCK       CLOUDY    57  54  89 E13G23    30.11R
KENANSVILLE    CLOUDY    54  53  97 NE3       30.13R FOG
KINSTON        LGT RAIN  55  55 100 NE8       30.12S
NEW BERN       RAIN      57  52  83 NE12      30.13R
RICHLANDS      CLOUDY    55  52  88 NE10G18   30.10F
ROCKY MOUNT    CLOUDY    52  50  93 NE9       30.12F
WASHINGTON     CLOUDY    50  49  96 NE8       30.14F
WHITEVILLE     CLOUDY    58  55  88 N8        30.09R

$$

AMZ130-135-150-152-154-156-158-170-250-252-270-ANZ085-086-088-633-658-670-291600-
MARINE OBSERVATIONS

STATION/POSITION TIME  TEMP    WIND        PRES    WAVE   SWELL
                       AIR SEA DIR/SP/G            HT/PER HT/PER
                 (UTC) (F)     (DEG/KT/KT) (MB)    (FT/S) (FT/S)
CHESAPEAKE LIGHT 1500   45      40/ 15/ 15 1022.5
64 E VA BEACH    1500   50 53   10/ 17/ 21 1020.0    5/ 5   2/12
DUCK             1500   48 50   20/ 19/ 22 1019.8
2 E DUCK         1500      50                N/A     4/ 4   2/13
10 NE DUCK       1500      51                N/A     4/ 5   2/13
OREGON INLET     1500   51 53  360/ 12/ 18 1020.4
13E OREGON INLT  1500      70                N/A     3/ 4   2/13
HATTERAS CG      1500   53 58   20/ 18/ 20 1020.0
DIAMOND BUOY     1500   59                 1018.2    3/12
17 S OCRACOKE    NOT AVBL
CAPE LOOKOUT     1500   56      40/ 18/ 22 1019.0
BEAUFORT LAB     1500   56 56   40/  8/ 15 1018.2
30 SE NEW RIVER  1500   61 60   40/ 10/ 12 1019.1    3/ 6   2/ 6
5 SE WRIGHTSVLE  NOT AVBL
225 S CAPE HAT   1444   75 75  230/ 17/ 19 1021.0    4/13   2/13
41 SE CHARLESTON 1500   69 72  260/ 21/ 27 1018.1    3/ 4   2/13

$$


USA.gov is the U.S. government's official web portal to all federal, state and local government web resources and services.